Home   Weather   Trieste   Past weeks
Flag for Italy

Past Weather in Trieste, Italy — Yesterday and Last 2 Weeks

Now
74 °F

Clear.


Feels Like: 76 °F
Forecast: 83 / 67 °F
Wind: 2 mph from Northeast

Location: Trieste

Current Time: Jul 18, 2019 at 11:44:05 pm

Latest Report: Jul 18, 2019 at 11:00 pm


Visibility: 13 mi

Pressure: 29.93 "Hg

Humidity: 64%

Dew Point: 61 °F

Location of TriesteLocation

Past Weather in Trieste — Graph

°F

Trieste Temperature Yesterday

Maximum temperature yesterday: 82 °F (at 5:00 pm)
Minimum temperature yesterday: 69 °F (at 6:00 am)
Average temperature yesterday: 76 °F

High & Low Weather Summary for the Past Weeks

 TemperatureHumidityPressure
High86 °F (Jul 6, 3:00 pm)97% (Jul 6, 10:00 pm)30.05 "Hg (Jul 6, 10:00 pm)
Low64 °F (Jul 11, 6:00 am)29% (Jul 16, 2:00 pm)29.71 "Hg (Jul 7, 5:00 pm)
Average75 °F65%29.89 "Hg
* Reported Jul 3 10:00 pm — Jul 18 10:00 pm, Trieste. Weather by CustomWeather, © 2019

Note: Actual official high and low records may vary slightly from our data, if they occured in-between our weather recording intervals... More about our weather records

Advertising

Trieste Weather History for the Previous 24 Hours

Scroll right to see more
 ConditionsComfort  
Time TempWeatherWind HumidityBarometerVisibility
10:00 pm
Thu, Jul 18
75 °FPassing clouds.3 mph70%29.92 "Hg12 mi
9:00 pm77 °FPassing clouds.3 mph67%29.89 "Hg12 mi
8:00 pm79 °FOvercast.1 mph55%29.89 "Hg12 mi
7:00 pm80 °FOvercast.3 mph62%29.89 "Hg12 mi
6:00 pm80 °FOvercast.3 mph61%29.89 "Hg12 mi
5:00 pm81 °FScattered clouds.2 mph60%29.89 "Hg12 mi
4:00 pm83 °FScattered clouds.7 mph56%29.89 "Hg12 mi
3:00 pm81 °FPartly sunny.3 mph67%29.90 "Hg12 mi
2:00 pm81 °FPartly sunny.5 mph65%29.88 "Hg12 mi
1:00 pm80 °FPassing clouds.5 mph69%29.87 "Hg12 mi
12:00 pm80 °FPassing clouds.3 mph67%29.87 "Hg12 mi
11:00 am78 °FPassing clouds.5 mph68%29.87 "Hg12 mi
10:00 am78 °FScattered clouds.5 mph67%29.86 "Hg12 mi
9:00 am75 °FPartly sunny.7 mph71%29.85 "Hg12 mi
8:00 am72 °FOvercast.3 mph77%29.85 "Hg12 mi
7:00 am70 °FOvercast.12 mph71%29.85 "Hg12 mi
6:00 am67 °FLight rain. Overcast.17 mph84%29.85 "Hg6 mi
5:00 am68 °FLight rain. Overcast.13 mph88%29.87 "Hg6 mi
4:00 am74 °FOvercast.13 mph59%29.87 "Hg12 mi
3:00 am76 °FPassing clouds.7 mph68%29.86 "Hg12 mi
2:00 am76 °FPassing clouds.8 mph52%29.85 "Hg12 mi
1:00 am76 °FPassing clouds.9 mph53%29.86 "Hg12 mi
12:00 am76 °FPassing clouds.10 mph55%29.86 "Hg12 mi
11:00 pm
Wed, Jul 17
75 °FPassing clouds.9 mph56%29.85 "Hg12 mi
Weather by CustomWeather, © 2019

See weather overview